SCP
1 1 1 0 0 0 0 0 0 0 0 0 0 0 0 0 0 0 0 0 0 0 0 0 0 0 0 0 0 0 0 0 0 0 0 0 0 0 0 0 0 0 0
1 1 1 1 1 0 0 0 0 0 0 0 0 0 0 0 0 0 0 0 0 0 0 0 0 0 0 0 0 0 0 0 0 0 0 0 0 0 0 0 0 0 0
1 1 1 1 1 1 1 1 0 0 0 0 0 0 0 0 0 0 0 0 0 0 0 1 1 0 0 0 0 0 0 1 1 1 0 0 0 0 0 0 0 0 0
0 0 1 1 1 1 1 1 1 1 1 0 0 0 0 0 0 0 0 0 0 1 1 1 1 1 1 1 1 1 1 1 1 1 0 0 0 0 0 0 0 0 0
0 0 0 1 1 2 2 2 2 2 1 1 1 1 0 1 1 1 0 0 1 1 1 1 1 1 1 1 1 1 1 1 1 1 0 1 1 1 0 0 0 0 0
0 0 0 0 1 1 1 2 2 2 2 2 2 1 1 1 1 1 1 1 1 1 1 1 1 1 1 1 1 1 1 1 1 1 1 1 1 1 1 0 0 0 0
0 0 0 0 0 0 0 1 1 2 2 2 2 2 2 2 1 1 1 1 1 1 1 1 1 1 1 1 1 1 1 1 1 1 1 1 1 1 1 1 0 0 0
0 0 0 0 0 0 0 0 0 1 1 1 2 2 2 2 2 2 2 2 1 1 1 1 1 1 1 1 1 1 1 1 1 1 1 1 1 1 1 1 1 1 1
0 0 0 0 0 0 0 0 0 0 0 0 0 1 1 2 2 2 2 2 2 2 2 1 1 1 1 1 1 1 1 1 1 1 1 1 1 1 1 1 1 1 1
0 0 0 0 0 0 0 0 0 0 0 0 0 0 0 1 2 2 2 2 2 2 2 2 2 2 2 2 2 2 1 1 1 1 1 1 1 1 1 1 1 1 1
0 0 0 0 0 0 0 0 0 0 0 0 0 0 0 0 1 1 1 2 2 2 2 2 2 2 2 2 2 2 1 1 1 1 1 1 1 1 1 1 1 1 1
0 0 0 0 0 0 0 0 0 0 0 0 0 0 0 0 0 0 0 1 1 2 2 2 2 2 2 1 1 1 1 1 1 1 1 1 1 1 1 1 1 1 1
0 0 0 0 0 0 0 0 0 0 0 0 0 0 0 0 0 0 0 0 1 1 1 2 2 2 2 1 1 1 1 1 1 1 1 1 1 1 1 1 1 1 1
0 0 0 0 0 0 0 0 0 0 0 0 0 0 0 0 0 0 0 0 0 0 1 1 1 1 1 1 1 1 1 1 1 1 1 0 0 1 1 1 1 1 1
0 0 0 0 0 0 0 0 0 0 0 0 0 0 0 0 0 0 0 0 0 0 0 0 1 1 1 1 1 1 1 1 1 1 0 0 0 0 0 1 1 1 1
0 0 0 0 0 0 0 0 0 0 0 0 0 0 0 0 0 0 0 0 0 0 0 0 0 0 1 1 1 1 1 1 1 1 0 0 0 0 0 0 1 1 1
0 0 0 0 0 0 0 0 0 0 0 0 0 0 0 0 0 0 0 0 0 0 0 0 0 0 0 1 1 1 1 1 1 1 1 1 0 0 0 0 0 1 1
0 0 0 0 0 0 0 0 0 0 0 0 0 0 0 0 0 0 0 0 0 0 0 0 0 0 0 0 1 1 1 1 1 1 1 1 1 1 1 1 0 1 1
0 0 0 0 0 0 0 0 0 0 0 0 0 0 0 0 0 0 0 0 0 0 0 0 0 0 0 0 0 0 0 0 0 0 0 0 1 1 1 1 1 1 1
0 0 0 0 0 0 0 0 0 0 0 0 0 0 0 0 0 0 0 0 0 0 0 0 0 0 0 0 0 0 0 0 0 0 0 0 1 1 1 1 1 1 1
0 0 0 0 0 0 0 0 0 0 0 0 0 0 0 0 0 0 0 0 0 0 0 0 0 0 0 0 0 0 0 0 0 0 0 0 1 1 1 1 1 2 2
0 0 0 0 0 0 0 0 0 0 0 0 0 0 0 0 0 0 0 0 0 0 0 0 0 0 0 0 0 0 0 0 0 0 0 0 1 1 1 1 1 2 2
0 0 0 0 0 0 0 0 0 0 0 0 0 0 0 0 0 0 0 0 0 0 0 0 0 0 0 0 0 0 0 0 0 0 0 0 1 1 1 1 1 2 2
0 0 0 0 0 0 0 0 0 0 0 0 0 0 0 0 0 0 0 0 0 0 0 0 0 0 0 0 0 0 0 0 0 0 0 0 1 1 1 1 1 2 2
0 0 0 0 0 0 0 0 0 0 0 0 0 0 0 0 0 0 0 0 0 0 0 0 0 0 0 0 0 0 0 0 0 0 0 0 0 1 1 1 1 1 2
0 0 0 0 0 0 0 0 0 0 0 0 0 0 0 0 0 0 0 0 0 0 0 0 0 0 0 0 0 0 0 0 0 0 0 0 0 0 1 1 1 1 1
Wind_Speed
13 10 11 11 11 11 11 12 12 12 11 8 7 7 7 8 8 8 7 6 5 4 4 4 4 4 5 4 3 2 3 3 2 2 4 5 6 7 7 6 5 5 7
14 13 13 13 12 12 12 12 12 11 11 11 9 9 9 9 8 8 8 8 8 7 7 7 8 6 6 6 5 3 3 4 3 2 2 5 7 7 7 5 4 3 5
19 18 20 21 18 15 13 12 11 11 9 10 10 10 10 11 11 9 8 8 9 9 10 10 10 9 8 8 6 5 5 5 5 5 5 7 7 7 6 6 4 4 5
20 20 22 27 25 22 20 17 14 13 11 10 9 10 11 11 12 11 10 10 10 10 11 11 11 11 9 8 7 7 8 7 6 6 8 6 6 8 7 7 6 6 6
19 19 23 29 29 29 27 25 22 19 16 13 11 11 12 13 13 13 12 11 11 11 11 11 10 11 10 8 8 9 9 8 7 8 7 5 5 7 8 8 8 7 6
20 20 24 29 29 30 29 29 28 27 24 19 15 12 13 14 14 14 15 13 12 12 12 10 9 9 9 9 9 10 10 8 9 9 7 7 6 6 8 9 9 8 7
21 21 24 30 30 31 31 30 29 28 28 27 24 19 17 15 14 15 14 13 12 12 11 9 8 7 6 7 8 8 8 8 11 8 8 8 6 5 9 10 10 9 9
22 22 22 27 28 29 30 30 30 29 28 28 28 27 24 21 17 15 13 12 12 11 9 8 8 8 7 6 6 5 4 6 10 10 9 8 6 6 10 12 11 11 10
22 21 21 22 23 25 25 28 27 28 28 27 28 27 25 24 22 18 15 14 13 12 11 10 9 9 8 7 5 3 2 1 8 7 8 6 4 6 8 11 13 13 13
22 22 22 22 22 20 19 23 25 26 27 26 26 27 24 22 22 21 18 18 17 14 13 12 11 10 10 8 6 4 3 5 9 8 5 4 2 6 7 8 12 15 15
23 22 21 22 22 21 19 19 20 20 23 22 21 25 20 15 16 15 19 21 19 16 15 13 12 11 10 9 8 6 6 7 7 6 5 2 2 6 8 9 9 13 15
23 22 20 20 20 20 16 15 13 13 15 16 16 18 15 14 13 15 17 19 20 18 15 12 12 11 11 8 8 8 7 9 7 6 5 6 5 7 8 9 10 11 15
20 20 20 19 19 18 14 13 10 9 11 13 17 18 15 13 12 13 10 12 13 14 11 11 10 8 9 8 7 7 8 7 6 6 6 8 8 9 10 10 11 12 14
19 20 20 19 18 17 15 12 12 11 11 11 14 17 14 11 12 13 10 12 11 9 11 10 8 10 10 11 11 11 10 8 7 6 5 8 10 11 12 13 13 13 14
19 20 21 20 19 18 14 12 12 12 12 14 12 13 15 12 13 13 11 11 12 12 12 12 10 11 11 11 11 12 12 12 11 9 6 9 11 12 13 14 15 15 14
19 20 19 20 19 19 15 15 13 12 12 13 12 15 16 14 13 13 13 12 12 12 13 13 14 12 10 10 11 12 13 13 12 11 9 8 12 14 14 14 15 16 16
18 18 18 18 18 18 17 16 13 12 13 12 12 15 17 17 16 15 12 12 12 13 14 13 15 12 11 11 12 13 12 13 13 12 11 8 8 12 15 15 15 16 17
18 18 18 16 18 19 17 16 13 12 13 11 12 13 17 18 19 16 13 12 13 13 11 11 12 12 12 11 11 10 10 10 14 14 12 10 9 8 11 15 16 17 18
18 19 19 20 19 18 17 15 14 13 13 12 11 12 15 17 18 15 13 13 15 12 11 11 12 12 13 12 12 11 11 11 12 12 14 13 12 11 10 10 15 16 17
18 19 20 20 19 17 14 12 11 12 12 12 12 14 17 15 17 15 12 15 15 12 12 12 14 13 12 12 13 13 12 12 11 11 13 12 12 13 12 12 10 12 17
19 20 21 21 19 16 13 13 14 13 11 11 11 16 17 17 17 15 12 13 13 13 15 16 14 15 12 11 12 12 13 15 15 12 12 12 13 13 12 12 10 9 9
18 18 19 19 19 18 14 13 13 14 12 11 12 13 16 18 17 13 14 13 14 13 15 15 15 12 12 11 9 10 10 11 13 12 12 12 13 11 12 12 12 11 10
17 18 17 19 19 18 18 13 13 12 12 12 13 12 15 18 17 16 15 14 14 13 12 15 14 15 13 13 10 8 7 8 9 9 12 11 12 11 11 11 13 12 12
17 16 17 18 18 18 17 15 17 14 14 16 14 13 17 17 17 17 16 16 14 13 14 14 13 12 13 12 12 10 10 9 8 8 7 8 10 10 11 9 10 11 11
16 15 16 17 17 18 18 17 16 15 14 13 14 17 17 15 16 18 17 16 16 13 15 15 15 14 11 12 11 12 13 11 12 8 10 9 7 7 8 9 9 9 10
15 15 15 17 17 18 18 18 18 18 18 18 18 17 15 14 14 18 19 17 17 15 16 16 15 16 13 14 12 11 11 10 9 9 10 12 12 9 8 6 7 8 8
Wind_Direction
358 11 7 3 6 360 355 0 7 8 2 353 357 359 351 347 345 342 339 336 329 326 319 304 295 291 286 275 245 212 180 162 174 185 202 194 170 158 152 151 185 151 128
360 6 12 0 2 1 357 357 358 359 1 360 355 352 344 335 330 327 321 320 319 315 310 302 296 287 278 273 260 238 212 184 175 170 199 209 186 174 171 176 249 108 149
8 11 12 7 360 354 349 347 349 347 345 344 345 343 337 329 321 314 315 313 309 308 304 297 292 285 272 266 260 247 235 212 189 178 209 213 186 186 184 185 205 171 172
17 18 17 20 18 12 4 354 349 343 336 327 327 328 323 316 313 311 307 306 305 307 304 291 285 280 271 260 252 243 236 223 202 196 223 208 188 167 184 189 199 197 190
25 23 21 24 26 25 23 17 7 354 345 334 326 318 312 309 304 301 298 298 300 300 301 292 282 276 268 255 245 243 240 226 197 221 233 221 208 166 190 196 200 198 199
29 28 27 27 28 27 25 24 21 14 5 352 334 320 311 304 304 305 299 293 296 296 294 293 286 281 270 255 244 241 240 224 209 228 224 221 217 182 204 202 201 196 200
28 27 28 27 27 27 25 23 21 20 18 14 4 348 334 317 311 316 306 293 296 298 293 293 300 298 287 265 248 239 237 221 236 235 225 222 220 200 224 214 202 197 201
26 25 24 24 23 23 24 23 22 20 18 17 15 9 359 345 330 323 321 305 295 296 293 291 300 302 299 285 268 248 233 234 233 235 230 228 204 224 236 220 206 200 202
27 25 22 20 18 17 20 18 18 18 18 17 15 10 6 2 352 344 333 325 316 301 293 287 283 283 285 284 272 239 200 243 257 241 237 239 192 238 245 221 211 204 202
27 23 19 16 14 11 10 14 13 16 14 12 14 10 6 3 1 355 351 345 329 314 306 297 283 280 276 272 265 234 184 232 245 242 238 233 225 258 255 237 225 216 207
24 19 15 12 9 5 4 4 6 10 11 8 8 6 3 2 360 353 355 353 347 331 315 301 290 288 281 257 246 243 227 240 238 247 241 138 291 277 263 254 247 232 220
17 14 12 10 5 2 360 358 358 2 4 5 5 3 359 356 353 351 345 351 348 343 327 307 289 278 264 252 220 212 242 241 245 241 230 159 240 265 267 263 259 248 230
12 11 8 7 5 2 357 355 354 353 357 357 1 360 356 355 350 349 345 347 343 342 338 326 305 282 271 267 268 248 251 258 250 246 228 182 225 247 258 261 261 253 236
10 8 5 3 3 1 357 354 353 352 351 350 354 356 355 351 348 346 342 340 337 338 333 327 314 300 283 270 261 259 254 248 251 251 237 190 229 242 249 253 257 253 243
7 3 1 358 360 357 355 354 352 351 349 343 346 350 352 349 344 342 337 337 334 335 331 324 314 307 294 279 267 260 258 256 256 251 233 201 228 242 247 248 248 250 247
3 359 357 356 357 355 355 354 348 346 345 342 345 345 348 347 342 338 334 333 333 334 329 319 314 306 293 284 274 263 257 256 255 253 250 221 215 237 247 246 244 245 245
359 356 356 353 355 355 354 353 347 344 344 342 344 344 352 348 344 339 332 330 335 330 324 320 316 309 299 288 278 272 266 259 256 252 248 249 236 222 233 243 240 240 242
358 357 354 353 351 352 353 350 347 346 348 345 345 348 351 348 348 338 333 333 335 328 324 323 318 314 307 296 283 274 270 264 260 256 250 242 244 242 227 226 233 234 237
0 357 355 353 351 350 352 350 348 348 347 344 346 350 347 347 345 340 333 335 334 330 329 327 323 316 308 302 291 277 266 263 261 257 252 245 240 237 241 220 217 230 232
359 357 354 351 349 349 351 348 348 346 344 341 346 346 345 343 343 339 335 336 336 332 333 330 324 318 309 304 295 280 266 258 256 256 255 248 239 234 233 238 227 222 223
357 358 354 350 347 349 351 349 345 341 340 340 344 341 341 339 339 338 336 334 334 331 328 327 329 321 316 314 302 285 263 250 246 246 247 247 239 234 232 231 233 234 217
355 356 352 350 346 347 350 347 341 333 336 340 340 338 337 335 335 335 335 332 332 328 328 330 330 322 317 321 316 305 277 258 242 239 240 237 238 233 231 229 229 229 233
353 353 351 350 346 347 351 347 341 337 337 341 340 338 336 330 330 330 330 331 328 328 325 325 323 320 317 312 300 293 293 279 280 246 236 238 234 231 228 228 227 228 229
349 348 349 348 346 348 348 347 345 341 340 337 335 332 332 329 330 327 327 328 325 324 320 317 315 309 306 303 304 286 288 305 299 282 246 228 233 234 229 222 226 225 225
348 346 348 347 348 348 347 346 343 340 337 333 334 333 333 332 333 327 328 328 326 323 319 313 308 302 296 291 289 291 291 287 273 274 271 262 238 229 231 221 218 221 223
348 346 349 349 350 350 348 347 343 339 338 336 338 337 335 332 331 329 329 328 325 321 318 312 306 300 291 284 280 277 276 275 276 274 268 262 260 247 223 217 217 214 217